FW0450 Weather Reports


Display with metric or nautical units.
time (UTC)temp
F
wind
direction
speed
MPH
gust
MPH
rain 1hr
in
rain 24hr
in
rain mn
in
humidity
%
barometer
mb
20200328180506 57 343 11.0 17.0 0.00 0.00 0.00 71 1017.9
20200328180007 56 345 13.0 18.0 0.00 0.00 0.00 72 1017.8
20200328175506 56 333 12.0 18.0 0.00 0.00 0.00 71 1017.9
20200328175007 56 336 12.0 17.0 0.00 0.00 0.00 71 1017.7
20200328174506 56 353 14.0 19.0 0.00 0.00 0.00 70 1017.6
20200328174006 57 352 14.0 19.0 0.00 0.00 0.00 69 1017.9
20200328173506 57 346 13.0 19.0 0.00 0.00 0.00 69 1017.8
20200328173006 57 353 12.0 18.0 0.00 0.00 0.00 67 1017.7
20200328172506 58 350 13.0 21.0 0.00 0.00 0.00 67 1017.5
20200328172007 58 342 13.0 21.0 0.00 0.00 0.00 67 1017.5
20200328171506 58 334 13.0 20.0 0.00 0.00 0.00 65 1017.5
20200328171007 58 323 14.0 20.0 0.00 0.00 0.00 64 1017.3
20200328170506 59 331 15.0 20.0 0.00 0.00 0.00 63 1017.5
20200328170006 59 345 14.0 20.0 0.00 0.00 0.00 63 1017.3
20200328165506 59 352 13.0 18.0 0.00 0.00 0.00 63 1017.4
20200328165006 60 354 14.0 19.0 0.00 0.00 0.00 63 1017.2
20200328164506 60 351 13.0 19.0 0.00 0.00 0.00 63 1017.1
20200328164007 60 348 12.0 18.0 0.00 0.00 0.00 63 1017.1
20200328163506 60 337 13.0 22.0 0.00 0.00 0.00 63 1017.0
20200328163007 60 345 14.0 22.0 0.00 0.00 0.00 63 1016.9
20200328162507 60 343 14.0 22.0 0.00 0.00 0.00 59 1016.9
20200328162006 60 349 13.0 22.0 0.00 0.00 0.00 57 1016.7
20200328161507 61 357 13.0 18.0 0.00 0.00 0.00 59 1017.0
20200328161006 61 344 12.0 18.0 0.00 0.00 0.00 63 1016.8
20200328160506 61 349 10.0 16.0 0.00 0.00 0.00 62 1017.0
20200328160007 62 348 11.0 17.0 0.00 0.00 0.00 64 1016.8
20200328155506 61 349 12.0 17.0 0.00 0.00 0.00 64 1016.8
20200328155007 62 351 11.0 16.0 0.00 0.00 0.00 62 1016.8
20200328154506 62 352 10.0 16.0 0.00 0.00 0.00 59 1016.8
20200328154006 63 353 10.0 15.0 0.00 0.00 0.00 57 1016.9
20200328153507 64 356 9.0 13.0 0.00 0.00 0.00 53 1016.8
20200328153007 64 358 9.0 13.0 0.00 0.00 0.00 49 1016.9
20200328152506 64 350 8.0 12.0 0.00 0.00 0.00 47 1016.8
20200328152007 65 358 7.0 12.0 0.00 0.00 0.00 45 1016.8
20200328151507 65 352 5.0 10.0 0.00 0.00 0.00 46 1016.8
20200328151007 65 348 4.0 10.0 0.00 0.00 0.00 45 1016.7
20200328150506 65 9 6.0 11.0 0.00 0.00 0.00 44 1016.6
20200328150007 65 8 7.0 11.0 0.00 0.00 0.00 44 1016.8
20200328145507 66 9 6.0 11.0 0.00 0.00 0.00 45 1017.0
20200328145007 67 86 5.0 11.0 0.00 0.00 0.00 43 1017.0
20200328144507 66 108 6.0 12.0 0.00 0.00 0.00 38 1016.9
20200328144007 66 84 7.0 12.0 0.00 0.00 0.00 37 1016.9
20200328143506 66 57 9.0 17.0 0.00 0.00 0.00 37 1016.9
20200328143007 65 58 10.0 17.0 0.00 0.00 0.00 37 1016.8
20200328142507 65 59 8.0 16.0 0.00 0.00 0.00 37 1016.8
20200328142006 65 92 8.0 13.0 0.00 0.00 0.00 38 1017.0
20200328141506 65 109 8.0 14.0 0.00 0.00 0.00 37 1016.9
20200328141007 65 85 8.0 14.0 0.00 0.00 0.00 38 1017.0
20200328140507 65 64 9.0 15.0 0.00 0.00 0.00 39 1017.2
20200328140006 65 59 11.0 16.0 0.00 0.00 0.00 38 1017.0
20200328135507 65 71 9.0 16.0 0.00 0.00 0.00 38 1017.0
20200328135007 66 56 8.0 15.0 0.00 0.00 0.00 40 1016.9
20200328134507 64 62 10.0 15.0 0.00 0.00 0.00 39 1017.1
20200328134007 64 93 10.0 15.0 0.00 0.00 0.00 39 1017.3
20200328133507 64 85 11.0 21.0 0.00 0.00 0.00 39 1017.0
20200328133007 63 84 11.0 21.0 0.00 0.00 0.00 43 1017.1
20200328132507 63 97 10.0 15.0 0.00 0.00 0.00 44 1017.0
20200328132007 63 101 11.0 20.0 0.00 0.00 0.00 43 1017.4
20200328131506 63 94 12.0 20.0 0.00 0.00 0.00 44 1017.3
20200328131007 63 87 11.0 19.0 0.00 0.00 0.00 43 1017.1
20200328130506 64 86 10.0 17.0 0.00 0.00 0.00 41 1017.3
20200328130007 64 75 9.0 17.0 0.00 0.00 0.00 41 1017.4
20200328125507 63 56 11.0 17.0 0.00 0.00 0.00 43 1017.2
20200328125007 64 61 11.0 17.0 0.00 0.00 0.00 43 1017.5
20200328124507 63 81 12.0 17.0 0.00 0.00 0.00 43 1017.6
20200328124007 63 71 11.0 16.0 0.00 0.00 0.00 44 1017.5
20200328123507 63 73 9.0 15.0 0.00 0.00 0.00 44 1017.6
20200328123008 63 96 10.0 16.0 0.00 0.00 0.00 45 1017.4
20200328122506 62 98 11.0 17.0 0.00 0.00 0.00 44 1017.5
20200328122007 62 92 11.0 17.0 0.00 0.00 0.00 44 1017.4
20200328121507 62 91 11.0 17.0 0.00 0.00 0.00 44 1017.3
20200328121007 62 80 11.0 19.0 0.00 0.00 0.00 44 1017.3
20200328120507 62 80 11.0 19.0 0.00 0.00 0.00 44 1017.5
20200328120007 62 80 12.0 19.0 0.00 0.00 0.00 44 1017.5
20200328115506 62 64 14.0 23.0 0.00 0.00 0.00 45 1017.5
20200328115007 61 60 15.0 27.0 0.00 0.00 0.00 44 1017.5
20200328114507 61 56 14.0 27.0 0.00 0.00 0.00 44 1017.5
20200328114007 61 69 13.0 18.0 0.00 0.00 0.00 44 1017.3
20200328113507 61 69 12.0 18.0 0.00 0.00 0.00 45 1017.7
20200328113007 61 71 11.0 18.0 0.00 0.00 0.00 45 1017.7
20200328112507 61 85 10.0 18.0 0.00 0.00 0.00 45 1017.6
20200328112006 60 65 11.0 19.0 0.00 0.00 0.00 45 1017.6
20200328111507 60 67 12.0 19.0 0.00 0.00 0.00 46 1017.7
20200328111007 60 83 11.0 19.0 0.00 0.00 0.00 45 1017.7
20200328110506 59 83 12.0 22.0 0.00 0.00 0.00 45 1017.7
20200328110007 59 75 14.0 22.0 0.00 0.00 0.00 45 1017.8
20200328105507 59 84 13.0 22.0 0.00 0.00 0.00 45 1017.8
20200328105007 59 83 12.0 19.0 0.00 0.00 0.00 46 1017.7
20200328104507 60 80 11.0 19.0 0.00 0.00 0.00 46 1017.8
20200328104007 60 102 9.0 15.0 0.00 0.00 0.00 47 1017.8
20200328103506 60 113 10.0 15.0 0.00 0.00 0.00 48 1017.9
20200328103007 59 106 11.0 15.0 0.00 0.00 0.00 48 1017.8
20200328102507 59 100 10.0 15.0 0.00 0.00 0.00 48 1017.7
20200328102007 59 93 9.0 15.0 0.00 0.00 0.00 49 1017.7
20200328101507 58 91 9.0 13.0 0.00 0.00 0.00 50 1017.7
20200328101007 58 99 8.0 13.0 0.00 0.00 0.00 50 1017.8
20200328100507 59 98 8.0 13.0 0.00 0.00 0.00 50 1017.7
20200328100007 58 84 7.0 11.0 0.00 0.00 0.00 50 1017.7
20200328095507 58 73 7.0 10.0 0.00 0.00 0.00 50 1017.8
20200328095007 58 85 7.0 11.0 0.00 0.00 0.00 53 1017.6
20200328094507 58 91 8.0 12.0 0.00 0.00 0.00 53 1017.6
20200328094007 57 95 8.0 12.0 0.00 0.00 0.00 51 1017.6
20200328093507 57 91 9.0 17.0 0.00 0.00 0.00 52 1017.6
20200328093007 57 88 11.0 17.0 0.00 0.00 0.00 53 1017.4
20200328092507 56 95 10.0 15.0 0.00 0.00 0.00 51 1017.4
20200328092007 56 106 11.0 17.0 0.00 0.00 0.00 53 1017.3
20200328091507 56 97 12.0 17.0 0.00 0.00 0.00 52 1017.2
20200328091008 56 90 12.0 16.0 0.00 0.00 0.00 53 1017.1
20200328090507 56 94 10.0 15.0 0.00 0.00 0.00 53 1017.3
20200328090007 56 102 9.0 17.0 0.00 0.00 0.00 53 1017.0
20200328085507 55 93 10.0 17.0 0.00 0.00 0.00 53 1017.0
20200328085007 55 93 10.0 17.0 0.00 0.00 0.00 53 1017.1
20200328084508 55 96 9.0 16.0 0.00 0.00 0.00 54 1017.2
20200328084008 55 90 9.0 14.0 0.00 0.00 0.00 54 1017.1
20200328083507 54 75 10.0 15.0 0.00 0.00 0.00 54 1017.1
20200328083007 54 79 11.0 17.0 0.00 0.00 0.00 56 1017.0
20200328082507 54 90 10.0 17.0 0.00 0.00 0.00 57 1016.9
20200328082008 54 97 8.0 11.0 0.00 0.00 0.00 57 1016.9
20200328081507 54 96 8.0 13.0 0.00 0.00 0.00 57 1016.7
20200328081007 54 86 8.0 14.0 0.00 0.00 0.00 57 1016.7
20200328080507 53 90 8.0 14.0 0.00 0.00 0.00 57 1016.9
20200328080008 54 87 6.0 11.0 0.00 0.00 0.00 58 1016.9
20200328075508 53 83 5.0 9.0 0.00 0.00 0.00 60 1016.8
20200328075008 52 88 6.0 9.0 0.00 0.00 0.00 60 1016.8
20200328074508 52 95 6.0 8.0 0.00 0.00 0.00 61 1016.6
20200328074007 51 100 6.0 9.0 0.00 0.00 0.00 62 1016.7
20200328073507 51 92 6.0 9.0 0.00 0.00 0.00 63 1016.4
20200328073007 50 82 5.0 9.0 0.00 0.00 0.00 63 1016.5
20200328072507 49 79 6.0 9.0 0.00 0.00 0.00 63 1016.4
20200328072007 49 85 6.0 9.0 0.00 0.00 0.00 64 1016.3
20200328071507 49 91 6.0 8.0 0.00 0.00 0.00 64 1016.3
20200328071008 49 91 6.0 8.0 0.00 0.00 0.00 64 1016.2
20200328070507 49 90 6.0 9.0 0.00 0.00 0.00 64 1016.2
20200328070007 49 92 6.0 9.0 0.00 0.00 0.00 64 1016.0
20200328065507 49 86 6.0 11.0 0.00 0.00 0.00 64 1015.8
20200328065008 49 80 7.0 11.0 0.00 0.00 0.00 64 1015.8
20200328064507 48 83 6.0 11.0 0.00 0.00 0.00 64 1015.9
20200328064007 48 92 7.0 9.0 0.00 0.00 0.00 64 1015.6
20200328063508 49 96 7.0 11.0 0.00 0.00 0.00 64 1015.5
20200328063007 49 91 7.0 11.0 0.00 0.00 0.00 64 1015.5
20200328062507 49 93 7.0 11.0 0.00 0.00 0.00 64 1015.5
20200328062008 48 91 6.0 11.0 0.00 0.00 0.00 64 1015.5
20200328061508 48 96 6.0 11.0 0.00 0.00 0.00 64 1015.5
20200328061007 49 99 6.0 11.0 0.00 0.00 0.00 64 1015.5
20200328060507 49 98 6.0 8.0 0.00 0.00 0.00 64 1015.6
20200328060007 49 96 5.0 8.0 0.00 0.00 0.00 63 1015.5
20200328055508 49 100 6.0 11.0 0.00 0.00 0.00 63 1015.4
20200328055007 49 100 6.0 11.0 0.00 0.00 0.00 63 1015.4
20200328054507 49 93 6.0 8.0 0.00 0.00 0.00 63 1015.2
20200328054008 49 108 5.0 8.0 0.00 0.00 0.00 63 1015.3
20200328053507 49 110 5.0 8.0 0.00 0.00 0.00 63 1015.3
20200328053008 49 100 5.0 8.0 0.00 0.00 0.00 63 1015.4
20200328052508 49 99 5.0 9.0 0.00 0.00 0.00 63 1015.4
20200328052007 49 103 6.0 9.0 0.00 0.00 0.00 63 1015.3
20200328051508 49 116 5.0 8.0 0.00 0.00 0.00 63 1015.2
20200328051008 49 129 6.0 8.0 0.00 0.00 0.00 63 1015.2
20200328050507 49 120 6.0 8.0 0.00 0.00 0.00 63 1015.1
20200328050008 49 108 5.0 8.0 0.00 0.00 0.00 63 1015.2
20200328045508 49 111 5.0 8.0 0.00 0.00 0.00 63 1015.1
20200328045007 49 103 5.0 8.0 0.00 0.00 0.00 63 1015.2
20200328044507 49 97 6.0 9.0 0.00 0.00 0.00 63 1015.1
20200328044008 49 92 6.0 11.0 0.00 0.00 0.00 63 1015.2
20200328043507 49 98 6.0 11.0 0.00 0.00 0.00 63 1015.1
20200328043007 50 115 7.0 11.0 0.00 0.00 0.00 63 1015.0
20200328042508 50 119 8.0 13.0 0.00 0.00 0.00 63 1014.9
20200328042008 50 117 8.0 13.0 0.00 0.00 0.00 63 1015.0
20200328041507 50 113 8.0 13.0 0.00 0.00 0.00 63 1015.0
20200328041008 50 124 8.0 13.0 0.00 0.00 0.00 63 1014.7
20200328040508 50 122 9.0 15.0 0.00 0.00 0.00 63 1014.8
20200328040008 50 115 10.0 15.0 0.00 0.00 0.00 62 1014.8
20200328035508 50 116 10.0 15.0 0.00 0.00 0.00 63 1014.7
20200328035008 50 115 9.0 15.0 0.00 0.00 0.00 63 1014.6
20200328034508 50 125 9.0 15.0 0.00 0.00 0.00 63 1014.7
20200328034008 50 125 8.0 13.0 0.00 0.00 0.00 63 1014.8
20200328033507 50 114 8.0 13.0 0.00 0.00 0.00 63 1014.5
20200328033007 50 118 8.0 13.0 0.00 0.00 0.00 63 1014.6
20200328032508 50 128 7.0 12.0 0.00 0.00 0.00 63 1014.4
20200328032007 50 121 7.0 12.0 0.00 0.00 0.00 63 1014.6
20200328031508 50 110 8.0 11.0 0.00 0.00 0.00 63 1014.6
20200328031008 50 125 8.0 11.0 0.00 0.00 0.00 62 1014.6
20200328030508 50 128 8.0 11.0 0.00 0.00 0.00 63 1014.7
20200328030008 50 117 7.0 11.0 0.00 0.00 0.00 63 1014.7
20200328025508 50 113 7.0 11.0 0.00 0.00 0.00 63 1014.7
20200328025008 50 119 6.0 10.0 0.00 0.00 0.00 62 1014.7
20200328024506 50 113 6.0 11.0 0.00 0.00 0.00 62 1015.0
20200328024005 50 110 7.0 11.0 0.00 0.00 0.00 62 1014.8
20200328023505 50 127 7.0 11.0 0.00 0.00 0.00 62 1014.8
20200328023006 50 128 6.0 10.0 0.00 0.00 0.00 62 1014.7
20200328022505 50 124 6.0 11.0 0.00 0.00 0.00 62 1014.9
20200328022006 50 113 6.0 11.0 0.00 0.00 0.00 62 1014.5
20200328021505 50 97 6.0 9.0 0.00 0.00 0.00 62 1014.8
20200328021005 50 92 6.0 9.0 0.00 0.00 0.00 61 1014.7
20200328020506 50 88 7.0 10.0 0.00 0.00 0.00 61 1014.9
20200328020006 50 89 7.0 10.0 0.00 0.00 0.00 61 1014.9
20200328015505 50 95 6.0 10.0 0.00 0.00 0.00 62 1014.9
20200328015006 50 97 6.0 10.0 0.00 0.00 0.00 63 1014.9
20200328014505 50 91 6.0 10.0 0.00 0.00 0.00 63 1014.8
20200328014006 49 87 6.0 9.0 0.00 0.00 0.00 64 1014.8
20200328013505 49 89 6.0 8.0 0.00 0.00 0.00 64 1014.8
20200328013006 49 93 5.0 8.0 0.00 0.00 0.00 64 1015.0
20200328012505 49 96 5.0 8.0 0.00 0.00 0.00 64 1015.0
20200328012006 50 92 5.0 8.0 0.00 0.00 0.00 64 1014.9
20200328011505 50 90 5.0 8.0 0.00 0.00 0.00 64 1015.1
20200328011005 49 90 5.0 8.0 0.00 0.00 0.00 65 1015.0
20200328010506 49 90 5.0 7.0 0.00 0.00 0.00 69 1015.0
20200328010005 49 88 5.0 7.0 0.00 0.00 0.00 69 1015.0
20200328005505 49 91 4.0 7.0 0.00 0.00 0.00 72 1014.8
20200328005005 49 91 4.0 7.0 0.00 0.00 0.00 72 1015.1
20200328004505 49 87 4.0 6.0 0.00 0.00 0.00 73 1014.9
20200328004005 49 87 4.0 6.0 0.00 0.00 0.00 73 1015.2
20200328003506 50 80 5.0 7.0 0.00 0.00 0.00 73 1015.2
20200328003006 50 70 5.0 8.0 0.00 0.00 0.00 73 1015.2
20200328002506 50 62 5.0 8.0 0.00 0.00 0.00 75 1015.1
20200328002006 49 55 5.0 7.0 0.00 0.00 0.00 77 1015.0
20200328001505 49 51 4.0 7.0 0.00 0.00 0.00 78 1015.1
20200328001005 49 49 4.0 6.0 0.00 0.00 0.00 78 1015.1
20200328000506 50 48 4.0 6.0 0.00 0.00 0.00 76 1015.1
20200328000010 50 55 4.0 6.0 0.00 0.00 0.00 76 1015.0
20200327235506 50 67 4.0 8.0 0.00 0.00 0.00 76 1014.9
20200327235005 50 81 5.0 8.0 0.00 0.00 0.00 75 1015.1
20200327234507 51 73 4.0 6.0 0.00 0.00 0.00 75 1015.1
20200327234006 51 50 5.0 7.0 0.00 0.00 0.00 75 1015.0
20200327233505 51 46 5.0 7.0 0.00 0.00 0.00 75 1014.7
20200327233006 51 45 5.0 7.0 0.00 0.00 0.00 75 1014.9
20200327232506 51 46 5.0 7.0 0.00 0.00 0.00 74 1015.1
20200327232005 51 35 6.0 9.0 0.00 0.00 0.00 74 1014.8
20200327231506 52 33 6.0 9.0 0.00 0.00 0.00 74 1014.7
20200327231006 51 44 5.0 8.0 0.00 0.00 0.00 74 1014.7
20200327230505 51 42 6.0 8.0 0.00 0.00 0.00 74 1014.7
20200327230007 52 42 5.0 8.0 0.00 0.00 0.00 74 1014.7
20200327225506 52 44 5.0 7.0 0.00 0.00 0.00 74 1014.7
20200327225006 51 39 5.0 8.0 0.00 0.00 0.00 74 1014.6
20200327224506 52 24 5.0 8.0 0.00 0.00 0.00 74 1014.4
20200327224006 52 24 5.0 8.0 0.00 0.00 0.00 74 1014.5
20200327223506 52 34 5.0 8.0 0.00 0.00 0.00 74 1014.7
20200327223006 52 31 5.0 8.0 0.00 0.00 0.00 74 1014.6
20200327222506 52 23 5.0 8.0 0.00 0.00 0.00 74 1014.6
20200327222006 52 22 5.0 8.0 0.00 0.00 0.00 74 1014.3
20200327221506 52 19 6.0 8.0 0.00 0.00 0.00 74 1014.6
20200327221006 52 8 6.0 9.0 0.00 0.00 0.00 74 1014.3
20200327220506 52 7 7.0 9.0 0.00 0.00 0.00 74 1014.5
20200327220006 52 8 6.0 9.0 0.00 0.00 0.00 74 1014.5
20200327215505 52 6 6.0 8.0 0.00 0.00 0.00 74 1014.4
20200327215006 52 10 7.0 10.0 0.00 0.00 0.00 74 1014.2
20200327214506 52 7 7.0 10.0 0.00 0.00 0.00 74 1014.3
20200327214006 52 4 7.0 9.0 0.00 0.00 0.00 74 1014.3
20200327213505 52 8 7.0 10.0 0.00 0.00 0.00 74 1014.3
20200327213006 52 11 7.0 10.0 0.00 0.00 0.00 74 1014.4
20200327212506 52 7 7.0 8.0 0.00 0.00 0.00 74 1014.0
20200327212006 52 7 7.0 9.0 0.00 0.00 0.00 74 1014.0
20200327211506 52 7 7.0 10.0 0.00 0.00 0.00 74 1014.2
20200327211006 52 1 6.0 10.0 0.00 0.00 0.00 74 1014.0
20200327210506 52 5 7.0 10.0 0.00 0.00 0.00 75 1014.1
20200327210006 52 9 8.0 10.0 0.00 0.00 0.00 75 1014.2
20200327205506 52 5 7.0 10.0 0.00 0.00 0.00 75 1014.2
20200327205007 52 11 7.0 10.0 0.00 0.00 0.00 75 1014.0
20200327204506 52 14 6.0 9.0 0.00 0.00 0.00 75 1014.0
20200327204006 52 10 7.0 9.0 0.00 0.00 0.00 75 1013.9
20200327203505 52 13 7.0 10.0 0.00 0.00 0.00 75 1013.9
20200327202506 52 5 6.0 8.0 0.00 0.00 0.00 75 1013.6
20200327202006 52 5 6.0 9.0 0.00 0.00 0.00 75 1013.6
20200327201506 52 5 7.0 9.0 0.00 0.00 0.00 75 1013.6
20200327201006 52 4 7.0 9.0 0.00 0.00 0.00 75 1013.6
20200327200505 53 2 6.0 9.0 0.00 0.00 0.00 75 1013.4
20200327200006 53 2 5.0 7.0 0.00 0.00 0.00 74 1013.3
20200327195506 52 1 5.0 7.0 0.00 0.00 0.00 74 1013.1
20200327195006 53 1 5.0 7.0 0.00 0.00 0.00 74 1013.1
20200327194506 53 1 5.0 7.0 0.00 0.00 0.00 74 1013.1
20200327194007 53 1 4.0 7.0 0.00 0.00 0.00 74 1013.0
20200327193506 53 357 4.0 6.0 0.00 0.00 0.00 73 1012.7
20200327193006 53 350 4.0 6.0 0.00 0.00 0.00 73 1012.8
20200327192506 53 352 4.0 5.0 0.00 0.00 0.00 73 1012.6
20200327192007 53 1 4.0 5.0 0.00 0.00 0.00 73 1012.7
20200327191506 53 1 4.0 6.0 0.00 0.00 0.00 73 1012.7
20200327191007 54 1 4.0 6.0 0.00 0.00 0.00 72 1012.5
20200327190507 54 354 4.0 6.0 0.00 0.00 0.00 70 1012.6
20200327190006 54 340 4.0 6.0 0.00 0.00 0.00 70 1012.3
20200327185506 54 333 3.0 5.0 0.00 0.00 0.00 65 1012.3
20200327185006 55 332 4.0 6.0 0.00 0.00 0.00 65 1012.4
20200327184506 55 341 4.0 6.0 0.00 0.00 0.00 64 1012.2
20200327184006 56 337 4.0 8.0 0.00 0.00 0.00 64 1012.1
20200327183506 56 326 4.0 8.0 0.00 0.00 0.00 63 1012.3
20200327183006 56 327 5.0 9.0 0.00 0.00 0.00 63 1012.0
20200327182506 57 333 5.0 9.0 0.00 0.00 0.00 63 1012.1
20200327182006 57 341 4.0 8.0 0.00 0.00 0.00 63 1011.8
20200327181506 57 341 5.0 8.0 0.00 0.00 0.00 63 1012.0
20200327181006 57 339 5.0 8.0 0.00 0.00 0.00 62 1012.0